Time,TemperatureF,DewpointF,PressureIn,WindDirection,WindDirectionDegrees,WindSpeedMPH,WindSpeedGustMPH,Humidity,HourlyPrecipIn,Conditions,Clouds,dailyrainin,SoftwareType,DateUTC
2013-04-30 00:09:00,52.3,26.8,30.18,SSW,202,2.7,-999.0,37,-99.99,,,0.00,Acu-Link.com,2013-04-30 04:09:00,
2013-04-30 00:24:00,52.2,27.4,30.18,SSW,202,1.7,-999.0,38,-99.99,,,0.00,Acu-Link.com,2013-04-30 04:24:00,
2013-04-30 00:39:00,52.0,27.8,30.18,SSW,202,0.0,-999.0,39,-99.99,,,0.00,Acu-Link.com,2013-04-30 04:39:00,
2013-04-30 00:54:00,51.6,28.1,30.18,South,180,0.0,-999.0,40,-99.99,,,0.00,Acu-Link.com,2013-04-30 04:54:00,
2013-04-30 01:09:00,51.4,28.5,30.18,South,180,0.0,-999.0,41,-99.99,,,0.00,Acu-Link.com,2013-04-30 05:09:00,
2013-04-30 01:25:00,51.1,29.4,30.18,SSW,202,0.0,-999.0,43,-99.99,,,0.00,Acu-Link.com,2013-04-30 05:25:00,
2013-04-30 01:40:00,50.9,29.8,30.18,SW,225,0.0,-999.0,44,-99.99,,,0.00,Acu-Link.com,2013-04-30 05:40:00,
2013-04-30 01:55:00,50.7,28.5,30.18,SSW,202,0.0,-999.0,42,-99.99,,,0.00,Acu-Link.com,2013-04-30 05:55:00,
2013-04-30 02:10:00,50.2,29.7,30.18,NNE,22,0.0,-999.0,45,-99.99,,,0.00,Acu-Link.com,2013-04-30 06:10:00,
2013-04-30 02:25:00,49.3,29.4,30.18,South,180,0.0,-999.0,46,-99.99,,,0.00,Acu-Link.com,2013-04-30 06:25:00,
2013-04-30 02:41:00,48.2,28.9,30.18,South,180,0.0,-999.0,47,-99.99,,,0.00,Acu-Link.com,2013-04-30 06:41:00,
2013-04-30 02:56:00,48.2,28.9,30.18,SSE,157,0.0,-999.0,47,-99.99,,,0.00,Acu-Link.com,2013-04-30 06:56:00,
2013-04-30 03:11:00,47.5,28.3,30.17,NE,45,0.0,-999.0,47,-99.99,,,0.00,Acu-Link.com,2013-04-30 07:11:00,
2013-04-30 03:26:00,46.4,29.7,30.18,ENE,67,0.0,-999.0,52,-99.99,,,0.00,Acu-Link.com,2013-04-30 07:26:00,
2013-04-30 03:41:00,45.7,29.6,30.18,NE,45,0.0,-999.0,53,-99.99,,,0.00,Acu-Link.com,2013-04-30 07:41:00,
2013-04-30 03:57:00,45.3,29.6,30.18,East,90,0.0,-999.0,54,-99.99,,,0.00,Acu-Link.com,2013-04-30 07:57:00,
2013-04-30 04:12:00,45.1,30.4,30.19,ENE,67,0.0,-999.0,56,-99.99,,,0.00,Acu-Link.com,2013-04-30 08:12:00,
2013-04-30 04:28:00,45.0,30.3,30.19,East,90,0.0,-999.0,56,-99.99,,,0.00,Acu-Link.com,2013-04-30 08:28:00,
2013-04-30 04:43:00,44.8,30.5,30.18,ENE,67,0.0,-999.0,57,-99.99,,,0.00,Acu-Link.com,2013-04-30 08:43:00,
2013-04-30 04:58:00,44.6,29.9,30.19,East,90,0.0,-999.0,56,-99.99,,,0.00,Acu-Link.com,2013-04-30 08:58:00,
2013-04-30 05:13:00,44.4,30.6,30.20,East,90,0.0,-999.0,58,-99.99,,,0.00,Acu-Link.com,2013-04-30 09:13:00,
2013-04-30 05:28:00,44.4,31.0,30.20,East,90,0.0,-999.0,59,-99.99,,,0.00,Acu-Link.com,2013-04-30 09:28:00,
2013-04-30 05:43:00,44.4,31.0,30.22,East,90,0.0,-999.0,59,-99.99,,,0.00,Acu-Link.com,2013-04-30 09:43:00,
2013-04-30 05:59:00,44.2,32.0,30.21,ENE,67,0.0,-999.0,62,-99.99,,,0.00,Acu-Link.com,2013-04-30 09:59:00,
2013-04-30 06:14:00,44.1,31.1,30.22,East,90,0.0,-999.0,60,-99.99,,,0.00,Acu-Link.com,2013-04-30 10:14:00,
2013-04-30 06:29:00,44.1,30.7,30.22,East,90,0.0,-999.0,59,-99.99,,,0.00,Acu-Link.com,2013-04-30 10:29:00,
2013-04-30 06:44:00,44.2,30.8,30.23,ENE,67,0.0,-999.0,59,-99.99,,,0.00,Acu-Link.com,2013-04-30 10:44:00,
2013-04-30 06:59:00,44.6,32.0,30.23,East,90,0.0,-999.0,61,-99.99,,,0.00,Acu-Link.com,2013-04-30 10:59:00,
2013-04-30 07:15:00,46.2,34.3,30.23,NE,45,0.0,-999.0,63,-99.99,,,0.00,Acu-Link.com,2013-04-30 11:15:00,
2013-04-30 07:30:00,49.1,34.5,30.23,SW,225,0.0,-999.0,57,-99.99,,,0.00,Acu-Link.com,2013-04-30 11:30:00,
2013-04-30 07:45:00,50.9,35.8,30.24,SW,225,0.0,-999.0,56,-99.99,,,0.00,Acu-Link.com,2013-04-30 11:45:00,
2013-04-30 08:00:00,53.6,35.9,30.23,SW,225,0.0,-999.0,51,-99.99,,,0.00,Acu-Link.com,2013-04-30 12:00:00,
2013-04-30 08:15:00,54.1,32.1,30.24,SSW,202,1.1,-999.0,43,-99.99,,,0.00,Acu-Link.com,2013-04-30 12:15:00,
2013-04-30 08:31:00,54.3,32.3,30.25,SSW,202,0.0,-999.0,43,-99.99,,,0.00,Acu-Link.com,2013-04-30 12:31:00,
2013-04-30 08:46:00,54.9,31.0,30.25,West,270,1.7,-999.0,40,-99.99,,,0.00,Acu-Link.com,2013-04-30 12:46:00,
2013-04-30 09:01:00,56.3,27.6,30.25,WSW,247,1.7,-999.0,33,-99.99,,,0.00,Acu-Link.com,2013-04-30 13:01:00,
2013-04-30 09:16:00,56.3,25.3,30.26,SSW,202,0.0,-999.0,30,-99.99,,,0.00,Acu-Link.com,2013-04-30 13:16:00,
2013-04-30 09:32:00,57.4,25.4,30.24,SW,225,0.0,-999.0,29,-99.99,,,0.00,Acu-Link.com,2013-04-30 13:32:00,
2013-04-30 09:47:00,59.5,24.6,30.26,East,90,0.0,-999.0,26,-99.99,,,0.00,Acu-Link.com,2013-04-30 13:47:00,
2013-04-30 10:02:00,60.8,26.6,30.24,ESE,112,2.2,-999.0,27,-99.99,,,0.00,Acu-Link.com,2013-04-30 14:02:00,
2013-04-30 10:17:00,61.5,24.4,30.25,SE,135,1.7,-999.0,24,-99.99,,,0.00,Acu-Link.com,2013-04-30 14:17:00,
2013-04-30 10:32:00,63.7,23.0,30.24,SE,135,1.7,-999.0,21,-99.99,,,0.00,Acu-Link.com,2013-04-30 14:32:00,
2013-04-30 10:48:00,63.7,24.2,30.24,East,90,0.0,-999.0,22,-99.99,,,0.00,Acu-Link.com,2013-04-30 14:48:00,
2013-04-30 11:03:00,63.7,23.0,30.24,SW,225,3.2,-999.0,21,-99.99,,,0.00,Acu-Link.com,2013-04-30 15:03:00,
2013-04-30 11:18:00,63.0,21.3,30.24,NNE,22,1.7,-999.0,20,-99.99,,,0.00,Acu-Link.com,2013-04-30 15:18:00,
2013-04-30 11:33:00,64.9,25.2,30.24,SW,225,3.7,-999.0,22,-99.99,,,0.00,Acu-Link.com,2013-04-30 15:33:00,
2013-04-30 11:48:00,66.0,26.1,30.24,West,270,2.7,-999.0,22,-99.99,,,0.00,Acu-Link.com,2013-04-30 15:48:00,
2013-04-30 12:04:00,68.5,28.2,30.24,East,90,0.0,-999.0,22,-99.99,,,0.00,Acu-Link.com,2013-04-30 16:04:00,
2013-04-30 12:19:00,69.3,26.5,30.23,South,180,2.2,-999.0,20,-99.99,,,0.00,Acu-Link.com,2013-04-30 16:19:00,
2013-04-30 12:34:00,72.0,26.2,30.22,SSE,157,2.7,-999.0,18,-99.99,,,0.00,Acu-Link.com,2013-04-30 16:34:00,
2013-04-30 12:49:00,68.7,28.3,30.22,West,270,2.2,-999.0,22,-99.99,,,0.00,Acu-Link.com,2013-04-30 16:49:00,
2013-04-30 13:04:00,71.8,28.6,30.22,South,180,1.1,-999.0,20,-99.99,,,0.00,Acu-Link.com,2013-04-30 17:04:00,
2013-04-30 13:20:00,69.8,25.7,30.21,SSW,202,3.2,-999.0,19,-99.99,,,0.00,Acu-Link.com,2013-04-30 17:20:00,
2013-04-30 13:35:00,73.0,34.1,30.21,NE,45,3.2,-999.0,24,-99.99,,,0.00,Acu-Link.com,2013-04-30 17:35:00,
2013-04-30 13:50:00,73.6,31.3,30.21,NE,45,3.2,-999.0,21,-99.99,,,0.00,Acu-Link.com,2013-04-30 17:50:00,
2013-04-30 14:05:00,75.0,31.2,30.21,SW,225,3.2,-999.0,20,-99.99,,,0.00,Acu-Link.com,2013-04-30 18:05:00,
2013-04-30 14:21:00,73.9,29.0,30.20,SW,225,0.0,-999.0,19,-99.99,,,0.00,Acu-Link.com,2013-04-30 18:21:00,
2013-04-30 14:36:00,75.9,29.4,30.21,East,90,3.2,-999.0,18,-99.99,,,0.00,Acu-Link.com,2013-04-30 18:36:00,
2013-04-30 14:51:00,77.2,26.0,30.21,NNE,22,2.7,-999.0,15,-99.99,,,0.00,Acu-Link.com,2013-04-30 18:51:00,
2013-04-30 15:06:00,74.7,31.0,30.21,SSE,157,2.7,-999.0,20,-99.99,,,0.00,Acu-Link.com,2013-04-30 19:06:00,
2013-04-30 15:21:00,73.6,30.1,30.20,WSW,247,1.7,-999.0,20,-99.99,,,0.00,Acu-Link.com,2013-04-30 19:21:00,
2013-04-30 15:37:00,77.9,28.1,30.20,SE,135,2.2,-999.0,16,-99.99,,,0.00,Acu-Link.com,2013-04-30 19:37:00,
2013-04-30 15:52:00,74.8,27.1,30.20,SSE,157,2.2,-999.0,17,-99.99,,,0.00,Acu-Link.com,2013-04-30 19:52:00,
2013-04-30 16:07:00,76.6,25.5,30.20,East,90,1.1,-999.0,15,-99.99,,,0.00,Acu-Link.com,2013-04-30 20:07:00,
2013-04-30 16:22:00,77.9,28.1,30.20,East,90,2.2,-999.0,16,-99.99,,,0.00,Acu-Link.com,2013-04-30 20:22:00,
2013-04-30 16:37:00,76.5,29.8,30.20,SSW,202,1.1,-999.0,18,-99.99,,,0.00,Acu-Link.com,2013-04-30 20:37:00,
2013-04-30 16:53:00,76.8,31.4,30.20,South,180,2.7,-999.0,19,-99.99,,,0.00,Acu-Link.com,2013-04-30 20:53:00,
2013-04-30 17:08:00,78.3,29.9,30.20,SE,135,0.0,-999.0,17,-99.99,,,0.00,Acu-Link.com,2013-04-30 21:08:00,
2013-04-30 17:23:00,76.6,31.2,30.20,South,180,1.7,-999.0,19,-99.99,,,0.00,Acu-Link.com,2013-04-30 21:23:00,
2013-04-30 17:38:00,75.7,33.0,30.20,SE,135,2.2,-999.0,21,-99.99,,,0.00,Acu-Link.com,2013-04-30 21:38:00,
2013-04-30 17:53:00,74.8,33.4,30.20,SE,135,2.7,-999.0,22,-99.99,,,0.00,Acu-Link.com,2013-04-30 21:53:00,
2013-04-30 18:09:00,71.1,31.4,30.21,South,180,0.0,-999.0,23,-99.99,,,0.00,Acu-Link.com,2013-04-30 22:09:00,
2013-04-30 18:24:00,68.7,31.5,30.22,South,180,3.7,-999.0,25,-99.99,,,0.00,Acu-Link.com,2013-04-30 22:24:00,
2013-04-30 18:39:00,66.4,32.3,30.22,SSW,202,0.0,-999.0,28,-99.99,,,0.00,Acu-Link.com,2013-04-30 22:39:00,
2013-04-30 18:54:00,64.0,31.9,30.23,East,90,2.2,-999.0,30,-99.99,,,0.00,Acu-Link.com,2013-04-30 22:54:00,
2013-04-30 19:09:00,61.5,30.6,30.23,SSW,202,2.2,-999.0,31,-99.99,,,0.00,Acu-Link.com,2013-04-30 23:09:00,
2013-04-30 19:25:00,60.4,29.6,30.24,South,180,2.7,-999.0,31,-99.99,,,0.00,Acu-Link.com,2013-04-30 23:25:00,
2013-04-30 19:40:00,58.8,30.5,30.25,ESE,112,0.0,-999.0,34,-99.99,,,0.00,Acu-Link.com,2013-04-30 23:40:00,
2013-04-30 19:55:00,57.6,29.4,30.25,SE,135,0.0,-999.0,34,-99.99,,,0.00,Acu-Link.com,2013-04-30 23:55:00,
2013-04-30 20:10:00,56.1,27.4,30.25,SSE,157,0.0,-999.0,33,-99.99,,,0.00,Acu-Link.com,2013-05-01 00:10:00,
2013-04-30 20:26:00,54.9,26.3,30.25,SE,135,0.0,-999.0,33,-99.99,,,0.00,Acu-Link.com,2013-05-01 00:26:00,
2013-04-30 20:41:00,53.8,26.1,30.25,East,90,0.0,-999.0,34,-99.99,,,0.00,Acu-Link.com,2013-05-01 00:41:00,
2013-04-30 20:56:00,52.7,26.5,30.27,West,270,0.0,-999.0,36,-99.99,,,0.00,Acu-Link.com,2013-05-01 00:56:00,
2013-04-30 21:11:00,51.8,27.0,30.27,East,90,0.0,-999.0,38,-99.99,,,0.00,Acu-Link.com,2013-05-01 01:11:00,
2013-04-30 21:27:00,51.1,27.6,30.27,East,90,0.0,-999.0,40,-99.99,,,0.00,Acu-Link.com,2013-05-01 01:27:00,
2013-04-30 21:42:00,50.4,28.2,30.26,SSW,202,0.0,-999.0,42,-99.99,,,0.00,Acu-Link.com,2013-05-01 01:42:00,
2013-04-30 21:57:00,50.0,28.4,30.26,ESE,112,0.0,-999.0,43,-99.99,,,0.00,Acu-Link.com,2013-05-01 01:57:00,
2013-04-30 22:12:00,49.5,29.6,30.27,ENE,67,0.0,-999.0,46,-99.99,,,0.00,Acu-Link.com,2013-05-01 02:12:00,
2013-04-30 22:27:00,49.1,29.8,30.26,East,90,0.0,-999.0,47,-99.99,,,0.00,Acu-Link.com,2013-05-01 02:27:00,
2013-04-30 22:43:00,48.2,29.9,30.27,East,90,0.0,-999.0,49,-99.99,,,0.00,Acu-Link.com,2013-05-01 02:43:00,
2013-04-30 22:58:00,47.7,30.0,30.27,ENE,67,0.0,-999.0,50,-99.99,,,0.00,Acu-Link.com,2013-05-01 02:58:00,
2013-04-30 23:13:00,47.5,30.3,30.27,East,90,0.0,-999.0,51,-99.99,,,0.00,Acu-Link.com,2013-05-01 03:13:00,
2013-04-30 23:28:00,47.1,29.9,30.28,SSE,157,0.0,-999.0,51,-99.99,,,0.00,Acu-Link.com,2013-05-01 03:28:00,
2013-04-30 23:44:00,46.6,29.5,30.28,East,90,0.0,-999.0,51,-99.99,,,0.00,Acu-Link.com,2013-05-01 03:44:00,
2013-04-30 23:59:00,46.4,30.7,30.30,East,90,0.0,-999.0,54,-99.99,,,0.00,Acu-Link.com,2013-05-01 03:59:00,